DW8750 Weather Reports


Display with metric or nautical units.
time (UTC)temp
F
wind
direction
speed
MPH
gust
MPH
rain 1hr
in
rain 24hr
in
rain mn
in
humidity
%
barometer
mb
20260902212042 82 262 3.0 6.0 0.00 0.00 0.00 77 1018.7
20260902211040 82 269 3.0 4.0 0.00 0.00 0.00 77 1018.7
20260902210051 82 265 3.0 6.0 0.00 0.00 0.00 77 1018.7
20260902205049 82 0 1.0 2.0 0.00 0.00 0.00 77 1018.7
20260902204045 82 0 1.0 3.0 0.00 0.00 0.00 77 1018.7
20260902203042 82 0 0.0 2.0 0.00 0.00 0.00 77 1018.8
20260902202044 83 0 1.0 4.0 0.00 0.00 0.00 77 1018.7
20260902201043 83 0 2.0 4.0 0.00 0.00 0.00 77 1018.7
20260902195043 83 0 4.0 6.0 0.00 0.00 0.00 77 1019.0
20260902194044 83 350 4.0 9.0 0.00 0.00 0.00 76 1018.9
20260902193041 83 317 4.0 7.0 0.00 0.00 0.00 76 1019.0
20260902191041 83 9 2.0 5.0 0.00 0.00 0.00 77 1018.9
20260902190040 83 5 3.0 5.0 0.00 0.00 0.00 77 1018.9
20260902185040 83 5 2.0 4.0 0.00 0.00 0.00 76 1018.8
20260902184041 83 5 2.0 4.0 0.00 0.00 0.00 76 1018.7
20260902182040 83 336 2.0 5.0 0.00 0.00 0.00 75 1018.5
20260902181044 83 336 2.0 6.0 0.00 0.00 0.00 74 1018.4
20260902180041 83 0 2.0 4.0 0.00 0.00 0.00 74 1018.3
20260902175045 83 0 3.0 4.0 0.00 0.00 0.00 73 1018.2
20260902174044 84 0 2.0 4.0 0.00 0.00 0.00 74 1018.1
20260902172044 85 0 0.0 2.0 0.00 0.00 0.00 74 1018.2
20260902171040 85 0 2.0 4.0 0.00 0.00 0.00 73 1018.2
20260902170041 85 0 3.0 6.0 0.00 0.00 0.00 72 1018.2
20260902165043 85 15 2.0 4.0 0.00 0.00 0.00 72 1018.2
20260902164045 86 0 3.0 8.0 0.00 0.00 0.00 71 1018.3
20260902163046 86 355 2.0 6.0 0.00 0.00 0.00 71 1018.3
20260902162045 86 355 3.0 7.0 0.00 0.00 0.00 70 1018.5
20260902161043 86 325 4.0 9.0 0.00 0.00 0.00 71 1018.4
20260902160037 87 5 4.0 9.0 0.00 0.00 0.00 68 1018.4
20260902154045 87 27 5.0 9.0 0.00 0.00 0.00 67 1018.4
20260902153036 87 348 4.0 9.0 0.00 0.00 0.00 66 1018.5
20260902152036 87 0 5.0 10.0 0.00 0.00 0.00 64 1018.5
20260902151044 87 300 5.0 8.0 0.00 0.00 0.00 67 1018.4
20260902150032 87 0 5.0 10.0 0.00 0.00 0.00 66 1018.4
20260902145031 88 338 5.0 9.0 0.00 0.00 0.00 65 1018.5
20260902144033 88 355 4.0 8.0 0.00 0.00 0.00 65 1018.5
20260902143034 87 318 5.0 9.0 0.00 0.00 0.00 65 1018.6
20260902140030 87 338 6.0 11.0 0.00 0.00 0.00 67 1018.7
20260902135032 88 13 4.0 11.0 0.00 0.00 0.00 66 1018.8
20260902134034 89 63 4.0 11.0 0.00 0.00 0.00 65 1018.8
20260902133035 88 11 4.0 9.0 0.00 0.00 0.00 66 1018.9
20260902130033 88 296 6.0 12.0 0.00 0.00 0.00 70 1019.2
20260902125035 87 12 7.0 11.0 0.00 0.00 0.00 69 1019.2
20260902124039 88 331 6.0 13.0 0.00 0.00 0.00 66 1019.3
20260902123039 87 346 8.0 12.0 0.00 0.00 0.00 69 1019.3
20260902122032 88 355 7.0 12.0 0.00 0.00 0.00 67 1019.5
20260902120041 88 0 7.0 12.0 0.00 0.00 0.00 66 1019.6
20260902115033 88 25 7.0 13.0 0.00 0.00 0.00 67 1019.6
20260902114026 88 15 7.0 13.0 0.00 0.00 0.00 64 1019.7
20260902112031 88 337 7.0 13.0 0.00 0.00 0.00 64 1019.5
20260902111033 88 5 5.0 12.0 0.00 0.00 0.00 63 1019.6
20260902110030 88 43 5.0 12.0 0.00 0.00 0.00 65 1019.6
20260902105029 87 342 4.0 10.0 0.00 0.00 0.00 65 1019.7
20260902104028 87 10 6.0 11.0 0.00 0.00 0.00 64 1019.8
20260902103037 87 45 5.0 11.0 0.00 0.00 0.00 68 1019.9
20260902102035 87 349 6.0 11.0 0.00 0.00 0.00 67 1020.0
20260902095029 87 300 7.0 12.0 0.00 0.00 0.00 68 1020.1
20260902094024 86 326 7.0 14.0 0.00 0.00 0.00 67 1020.2
20260902093028 86 0 7.0 12.0 0.00 0.00 0.00 68 1020.0
20260902090036 86 349 8.0 12.0 0.00 0.00 0.00 68 1019.9
20260902085028 86 355 7.0 11.0 0.00 0.00 0.00 70 1019.8
20260902084015 85 312 6.0 10.0 0.00 0.00 0.00 68 1019.7
20260902083016 85 341 7.0 12.0 0.00 0.00 0.00 68 1019.6
20260902082017 85 332 7.0 12.0 0.00 0.00 0.00 69 1019.5
20260902081016 86 348 6.0 11.0 0.00 0.00 0.00 68 1019.5
20260902080024 86 329 4.0 9.0 0.00 0.00 0.00 66 1019.5
20260902075015 86 49 4.0 7.0 0.00 0.00 0.00 68 1019.4
20260902073019 85 277 4.0 9.0 0.00 0.00 0.00 68 1019.2
20260902072027 85 291 5.0 9.0 0.00 0.00 0.00 66 1019.2
20260902071015 86 296 3.0 8.0 0.00 0.00 0.00 66 1019.3
20260902070017 86 263 2.0 6.0 0.00 0.00 0.00 67 1019.1
20260902065015 85 340 1.0 6.0 0.00 0.00 0.00 68 1019.1
20260902063016 84 179 1.0 4.0 0.00 0.00 0.00 71 1019.0
20260902062033 83 159 1.0 4.0 0.00 0.00 0.00 73 1018.8
20260902060022 81 218 2.0 4.0 0.00 0.00 0.00 76 1018.8
20260902055022 80 235 2.0 4.0 0.00 0.00 0.00 77 1018.8
20260902054023 80 191 2.0 4.0 0.00 0.00 0.00 78 1018.8
20260902053021 80 159 3.0 5.0 0.00 0.00 0.00 78 1018.7
20260902052011 79 223 3.0 5.0 0.00 0.00 0.00 79 1018.7
20260902051009 79 213 4.0 6.0 0.00 0.00 0.00 79 1018.8
20260902050009 79 217 4.0 6.0 0.00 0.00 0.00 79 1018.7
20260902045008 78 217 4.0 6.0 0.00 0.00 0.00 79 1018.7
20260902044008 79 192 3.0 5.0 0.00 0.00 0.00 79 1018.8
20260902043009 79 203 4.0 6.0 0.00 0.00 0.00 79 1018.8
20260902042011 79 191 4.0 6.0 0.00 0.00 0.00 79 1018.8
20260902041009 79 213 3.0 6.0 0.00 0.00 0.00 79 1018.8
20260902040008 79 196 4.0 6.0 0.00 0.00 0.00 79 1018.9
20260902035008 79 188 3.0 5.0 0.00 0.00 0.00 79 1018.8
20260902034012 79 192 4.0 6.0 0.00 0.00 0.00 79 1018.9
20260902031010 79 189 4.0 5.0 0.00 0.00 0.00 80 1018.9
20260902024001 79 191 3.0 5.0 0.00 0.00 0.00 80 1019.0
20260902022956 79 219 3.0 6.0 0.00 0.00 0.00 80 1019.0
20260902021956 79 216 4.0 6.0 0.00 0.00 0.00 80 1019.1
20260902020959 79 166 4.0 7.0 0.00 0.00 0.00 80 1019.1
20260902015956 79 211 3.0 5.0 0.00 0.00 0.00 80 1019.1
20260902014956 80 188 3.0 5.0 0.00 0.00 0.00 79 1019.1
20260902011952 80 208 4.0 6.0 0.00 0.00 0.00 79 1019.0
20260902010954 80 211 4.0 7.0 0.00 0.00 0.00 79 1019.0
20260902005956 80 207 4.0 7.0 0.00 0.00 0.00 78 1019.1
20260902004955 80 212 4.0 7.0 0.00 0.00 0.00 78 1019.1
20260902003953 80 192 4.0 7.0 0.00 0.00 0.00 78 1019.1
20260902002956 80 228 5.0 8.0 0.00 0.00 0.00 79 1019.1
20260902001955 80 205 4.0 6.0 0.00 0.00 0.00 79 1019.1
20260902000951 80 211 4.0 7.0 0.00 0.00 0.00 79 1019.1
20260901234946 80 200 2.0 5.0 0.00 0.00 0.00 78 1019.1
20260901233945 80 180 4.0 7.0 0.00 0.00 0.00 78 1019.2
20260901232947 80 198 4.0 6.0 0.00 0.00 0.00 78 1019.2
20260901231946 80 215 4.0 7.0 0.00 0.00 0.00 78 1019.3
20260901230945 80 217 4.0 7.0 0.00 0.00 0.00 78 1019.2
20260901225951 81 208 4.0 6.0 0.00 0.00 0.00 77 1019.1
20260901223953 81 213 3.0 5.0 0.00 0.00 0.00 76 1019.0
20260901222947 81 213 3.0 5.0 0.00 0.00 0.00 76 1018.9
20260901221946 81 213 4.0 6.0 0.00 0.00 0.00 76 1019.0
20260901220945 82 222 2.0 5.0 0.00 0.00 0.00 75 1019.0
20260901215946 82 232 2.0 4.0 0.00 0.00 0.00 75 1018.9
20260901214945 82 257 2.0 5.0 0.00 0.00 0.00 75 1018.9
20260901212938 82 196 5.0 10.0 0.00 0.00 0.00 74 1019.0